| time (UTC) | temp F | wind direction | speed MPH | gust MPH | rain 1hr in | rain 24hr in | rain mn in | humidity % | barometer mb |
| 20260507012320 | 50 | 2 | 0.0 | 0.0 | 0.00 | 0.43 | 0.43 | 77 | 1014.4 |
| 20260507011818 | 50 | 0 | 0.0 | 0.0 | 0.00 | 0.43 | 0.43 | 76 | 1014.4 |
| 20260507011315 | 51 | 2 | 0.0 | 0.0 | 0.00 | 0.43 | 0.43 | 77 | 1014.1 |
| 20260507010814 | 51 | 3 | 0.0 | 0.0 | 0.00 | 0.43 | 0.43 | 77 | 1014.4 |
| 20260507010310 | 51 | 3 | 0.0 | 0.0 | 0.00 | 0.43 | 0.43 | 77 | 1014.3 |
| 20260507005808 | 51 | 5 | 0.0 | 0.0 | 0.00 | 0.43 | 0.43 | 79 | 1014.3 |
| 20260507005306 | 51 | 358 | 0.0 | 0.0 | 0.00 | 0.43 | 0.43 | 81 | 1014.4 |
| 20260507004801 | 51 | 4 | 0.0 | 0.0 | 0.00 | 0.43 | 0.43 | 79 | 1014.4 |
| 20260507004258 | 51 | 4 | 0.0 | 0.0 | 0.00 | 0.43 | 0.43 | 79 | 1014.2 |
| 20260507003754 | 51 | 4 | 0.0 | 0.0 | 0.00 | 0.43 | 0.43 | 75 | 1014.1 |
| 20260507003250 | 51 | 3 | 0.0 | 0.0 | 0.00 | 0.43 | 0.43 | 75 | 1014.1 |
| 20260507002746 | 52 | 5 | 0.0 | 0.0 | 0.00 | 0.43 | 0.43 | 74 | 1013.9 |
| 20260507002242 | 52 | 5 | 0.0 | 0.0 | 0.00 | 0.43 | 0.43 | 72 | 1013.9 |
| 20260507001739 | 53 | 4 | 0.0 | 0.0 | 0.00 | 0.43 | 0.43 | 71 | 1013.8 |
| 20260507001237 | 53 | 4 | 0.0 | 0.0 | 0.00 | 0.43 | 0.43 | 71 | 1014.0 |
| 20260507000733 | 54 | 4 | 0.0 | 0.0 | 0.00 | 0.43 | 0.43 | 68 | 1013.6 |
| 20260507000229 | 54 | 4 | 0.0 | 0.0 | 0.00 | 0.43 | 0.43 | 67 | 1013.7 |
| 20260506235725 | 54 | 1 | 0.0 | 0.0 | 0.00 | 0.43 | 0.43 | 65 | 1013.7 |
| 20260506235221 | 55 | 5 | 0.0 | 0.0 | 0.00 | 0.43 | 0.43 | 65 | 1013.7 |
| 20260506234718 | 55 | 8 | 0.0 | 0.0 | 0.00 | 0.43 | 0.43 | 64 | 1013.7 |
| 20260506234215 | 55 | 356 | 0.0 | 1.0 | 0.00 | 0.43 | 0.43 | 63 | 1013.6 |
| 20260506233713 | 55 | 4 | 0.0 | 0.0 | 0.00 | 0.43 | 0.43 | 67 | 1013.4 |
| 20260506233209 | 55 | 349 | 1.0 | 1.0 | 0.00 | 0.43 | 0.43 | 62 | 1013.5 |
| 20260506232707 | 55 | 2 | 0.0 | 0.0 | 0.00 | 0.43 | 0.43 | 62 | 1013.7 |
| 20260506232201 | 55 | 8 | 1.0 | 1.0 | 0.00 | 0.43 | 0.43 | 60 | 1013.5 |
| 20260506231658 | 55 | 14 | 1.0 | 1.0 | 0.00 | 0.43 | 0.43 | 60 | 1013.7 |
| 20260506231157 | 55 | 333 | 1.0 | 1.0 | 0.00 | 0.43 | 0.43 | 61 | 1013.9 |
| 20260506230653 | 55 | 345 | 2.0 | 2.0 | 0.00 | 0.43 | 0.43 | 60 | 1013.6 |
| 20260506230149 | 55 | 282 | 2.0 | 2.0 | 0.00 | 0.43 | 0.43 | 62 | 1013.6 |
| 20260506225646 | 56 | 311 | 2.0 | 3.0 | 0.00 | 0.43 | 0.43 | 58 | 1013.6 |
| 20260506225143 | 56 | 351 | 1.0 | 2.0 | 0.00 | 0.43 | 0.43 | 59 | 1013.6 |
| 20260506224640 | 57 | 321 | 1.0 | 2.0 | 0.00 | 0.43 | 0.43 | 58 | 1013.8 |
| 20260506224136 | 56 | 18 | 0.0 | 0.0 | 0.00 | 0.43 | 0.43 | 59 | 1014.0 |
| 20260506223633 | 56 | 339 | 2.0 | 2.0 | 0.00 | 0.43 | 0.43 | 57 | 1014.0 |
| 20260506223128 | 56 | 350 | 2.0 | 2.0 | 0.00 | 0.43 | 0.43 | 57 | 1013.9 |
| 20260506222626 | 56 | 310 | 0.0 | 1.0 | 0.00 | 0.43 | 0.43 | 60 | 1013.9 |
| 20260506222122 | 56 | 341 | 2.0 | 3.0 | 0.00 | 0.43 | 0.43 | 57 | 1013.9 |
| 20260506221620 | 56 | 358 | 1.0 | 1.0 | 0.00 | 0.43 | 0.43 | 59 | 1013.9 |
| 20260506221118 | 56 | 351 | 2.0 | 2.0 | 0.00 | 0.43 | 0.43 | 60 | 1014.2 |
| 20260506220614 | 56 | 5 | 1.0 | 1.0 | 0.00 | 0.43 | 0.43 | 60 | 1014.0 |
| 20260506220109 | 56 | 354 | 1.0 | 2.0 | 0.00 | 0.43 | 0.43 | 60 | 1014.1 |
| 20260506215606 | 56 | 327 | 1.0 | 1.0 | 0.00 | 0.43 | 0.43 | 60 | 1014.0 |
| 20260506215101 | 56 | 268 | 2.0 | 3.0 | 0.00 | 0.43 | 0.43 | 59 | 1013.7 |
| 20260506214559 | 56 | 270 | 1.0 | 2.0 | 0.00 | 0.43 | 0.43 | 61 | 1013.9 |
| 20260506214056 | 56 | 328 | 2.0 | 2.0 | 0.00 | 0.43 | 0.43 | 58 | 1013.9 |
| 20260506213554 | 56 | 18 | 1.0 | 1.0 | 0.00 | 0.43 | 0.43 | 57 | 1014.0 |
| 20260506213051 | 56 | 10 | 3.0 | 5.0 | 0.00 | 0.43 | 0.43 | 56 | 1013.7 |
| 20260506212548 | 56 | 6 | 2.0 | 2.0 | 0.00 | 0.43 | 0.43 | 58 | 1013.8 |
| 20260506212043 | 56 | 6 | 1.0 | 2.0 | 0.00 | 0.43 | 0.43 | 58 | 1013.7 |
| 20260506211539 | 56 | 278 | 1.0 | 2.0 | 0.00 | 0.43 | 0.43 | 60 | 1013.6 |
| 20260506211036 | 56 | 32 | 1.0 | 1.0 | 0.00 | 0.43 | 0.43 | 59 | 1013.6 |
| 20260506210532 | 56 | 332 | 1.0 | 1.0 | 0.00 | 0.43 | 0.43 | 60 | 1013.6 |
| 20260506210029 | 56 | 350 | 3.0 | 3.0 | 0.00 | 0.43 | 0.43 | 60 | 1013.4 |
| 20260506205526 | 56 | 315 | 2.0 | 2.0 | 0.00 | 0.43 | 0.43 | 59 | 1013.7 |
| 20260506205021 | 56 | 331 | 2.0 | 2.0 | 0.00 | 0.43 | 0.43 | 58 | 1013.5 |
| 20260506204519 | 56 | 36 | 1.0 | 2.0 | 0.00 | 0.43 | 0.43 | 58 | 1013.5 |
| 20260506204016 | 56 | 300 | 0.0 | 1.0 | 0.00 | 0.43 | 0.43 | 59 | 1013.6 |
| 20260506203514 | 56 | 10 | 0.0 | 1.0 | 0.00 | 0.43 | 0.43 | 58 | 1013.5 |
| 20260506203010 | 56 | 6 | 2.0 | 2.0 | 0.00 | 0.43 | 0.43 | 60 | 1013.5 |
| 20260506202508 | 56 | 11 | 1.0 | 1.0 | 0.00 | 0.43 | 0.43 | 57 | 1013.7 |
| 20260506201958 | 56 | 0 | 2.0 | 2.0 | 0.00 | 0.43 | 0.43 | 57 | 1013.4 |
| 20260506201456 | 56 | 333 | 2.0 | 2.0 | 0.00 | 0.43 | 0.43 | 60 | 1013.6 |
| 20260506200952 | 56 | 301 | 2.0 | 2.0 | 0.00 | 0.43 | 0.43 | 61 | 1013.7 |
| 20260506200449 | 56 | 327 | 2.0 | 2.0 | 0.00 | 0.43 | 0.43 | 61 | 1013.5 |
| 20260506195945 | 56 | 342 | 2.0 | 2.0 | 0.00 | 0.43 | 0.43 | 57 | 1013.6 |
| 20260506195442 | 56 | 358 | 5.0 | 6.0 | 0.00 | 0.43 | 0.43 | 58 | 1013.4 |
| 20260506194939 | 57 | 311 | 3.0 | 3.0 | 0.00 | 0.43 | 0.43 | 59 | 1013.4 |
| 20260506194437 | 57 | 344 | 1.0 | 1.0 | 0.00 | 0.43 | 0.43 | 57 | 1013.4 |
| 20260506193933 | 57 | 15 | 3.0 | 3.0 | 0.00 | 0.43 | 0.43 | 57 | 1013.4 |
| 20260506193430 | 57 | 319 | 3.0 | 5.0 | 0.00 | 0.43 | 0.43 | 57 | 1013.2 |
| 20260506192927 | 57 | 306 | 3.0 | 5.0 | 0.00 | 0.43 | 0.43 | 57 | 1013.1 |
| 20260506192424 | 57 | 293 | 3.0 | 3.0 | 0.00 | 0.43 | 0.43 | 56 | 1013.1 |
| 20260506191920 | 57 | 302 | 2.0 | 3.0 | 0.00 | 0.43 | 0.43 | 55 | 1013.3 |
| 20260506191417 | 57 | 11 | 1.0 | 1.0 | 0.00 | 0.43 | 0.43 | 59 | 1013.4 |
| 20260506190914 | 57 | 289 | 3.0 | 3.0 | 0.00 | 0.43 | 0.43 | 57 | 1013.2 |
| 20260506190410 | 57 | 334 | 6.0 | 7.0 | 0.00 | 0.43 | 0.43 | 57 | 1013.1 |
| 20260506185907 | 56 | 289 | 3.0 | 3.0 | 0.00 | 0.43 | 0.43 | 58 | 1013.6 |
| 20260506185405 | 57 | 337 | 2.0 | 2.0 | 0.00 | 0.43 | 0.43 | 59 | 1013.5 |
| 20260506184902 | 57 | 296 | 3.0 | 3.0 | 0.00 | 0.43 | 0.43 | 57 | 1013.2 |
| 20260506184358 | 57 | 18 | 4.0 | 5.0 | 0.00 | 0.43 | 0.43 | 57 | 1013.3 |
| 20260506183856 | 57 | 339 | 2.0 | 2.0 | 0.00 | 0.43 | 0.43 | 58 | 1012.9 |
| 20260506183350 | 58 | 322 | 3.0 | 5.0 | 0.00 | 0.43 | 0.43 | 57 | 1013.2 |
| 20260506182848 | 59 | 9 | 5.0 | 6.0 | 0.00 | 0.43 | 0.43 | 57 | 1012.9 |
| 20260506182345 | 59 | 285 | 2.0 | 2.0 | 0.00 | 0.43 | 0.43 | 58 | 1013.1 |
| 20260506181843 | 58 | 325 | 1.0 | 1.0 | 0.00 | 0.43 | 0.43 | 59 | 1012.8 |
| 20260506181341 | 57 | 293 | 3.0 | 3.0 | 0.00 | 0.43 | 0.43 | 59 | 1013.2 |
| 20260506180837 | 57 | 341 | 5.0 | 6.0 | 0.00 | 0.43 | 0.43 | 57 | 1013.2 |
| 20260506180333 | 58 | 337 | 3.0 | 5.0 | 0.00 | 0.43 | 0.43 | 58 | 1013.3 |
| 20260506175830 | 57 | 16 | 3.0 | 3.0 | 0.00 | 0.43 | 0.43 | 57 | 1013.6 |
| 20260506175327 | 58 | 344 | 4.0 | 5.0 | 0.00 | 0.43 | 0.43 | 57 | 1013.4 |
| 20260506174824 | 58 | 58 | 3.0 | 3.0 | 0.00 | 0.43 | 0.43 | 58 | 1013.4 |
| 20260506174321 | 57 | 359 | 4.0 | 6.0 | 0.00 | 0.43 | 0.43 | 58 | 1013.5 |
| 20260506173819 | 58 | 5 | 3.0 | 3.0 | 0.00 | 0.43 | 0.43 | 61 | 1013.3 |
| 20260506173315 | 57 | 350 | 2.0 | 2.0 | 0.00 | 0.43 | 0.43 | 57 | 1013.5 |
| 20260506172813 | 57 | 29 | 1.0 | 1.0 | 0.00 | 0.43 | 0.43 | 59 | 1013.4 |
| 20260506172309 | 57 | 304 | 4.0 | 6.0 | 0.00 | 0.43 | 0.43 | 59 | 1013.2 |
| 20260506171807 | 57 | 331 | 4.0 | 5.0 | 0.00 | 0.43 | 0.43 | 58 | 1013.6 |
| 20260506171303 | 57 | 335 | 2.0 | 2.0 | 0.00 | 0.43 | 0.43 | 57 | 1013.6 |
| 20260506170801 | 57 | 354 | 3.0 | 3.0 | 0.00 | 0.43 | 0.43 | 55 | 1013.4 |
| 20260506170257 | 57 | 347 | 1.0 | 1.0 | 0.00 | 0.43 | 0.43 | 58 | 1013.6 |
| 20260506165756 | 57 | 319 | 3.0 | 5.0 | 0.00 | 0.43 | 0.43 | 59 | 1013.6 |
| 20260506165253 | 58 | 349 | 1.0 | 2.0 | 0.00 | 0.43 | 0.43 | 64 | 1013.7 |
| 20260506164750 | 57 | 41 | 0.0 | 0.0 | 0.00 | 0.43 | 0.43 | 66 | 1013.6 |
| 20260506164246 | 57 | 354 | 3.0 | 5.0 | 0.00 | 0.43 | 0.43 | 62 | 1013.4 |
| 20260506163744 | 57 | 327 | 2.0 | 2.0 | 0.00 | 0.43 | 0.43 | 69 | 1013.4 |
| 20260506163238 | 56 | 285 | 2.0 | 3.0 | 0.00 | 0.43 | 0.43 | 68 | 1013.1 |
| 20260506162735 | 55 | 18 | 1.0 | 3.0 | 0.00 | 0.43 | 0.43 | 69 | 1013.4 |
| 20260506162233 | 55 | 322 | 2.0 | 3.0 | 0.00 | 0.43 | 0.43 | 65 | 1013.5 |
| 20260506161729 | 56 | 289 | 3.0 | 5.0 | 0.00 | 0.43 | 0.43 | 66 | 1013.5 |
| 20260506161227 | 56 | 313 | 3.0 | 3.0 | 0.00 | 0.43 | 0.43 | 66 | 1013.5 |
| 20260506160724 | 56 | 351 | 1.0 | 2.0 | 0.00 | 0.43 | 0.43 | 69 | 1013.4 |
| 20260506160221 | 56 | 305 | 2.0 | 2.0 | 0.00 | 0.43 | 0.43 | 64 | 1013.6 |
| 20260506155720 | 56 | 26 | 2.0 | 2.0 | 0.00 | 0.43 | 0.43 | 64 | 1013.4 |
| 20260506155216 | 56 | 131 | 2.0 | 3.0 | 0.00 | 0.43 | 0.43 | 65 | 1013.4 |
| 20260506153324 | 55 | 332 | 3.0 | 5.0 | 0.00 | 0.43 | 0.43 | 65 | 1013.5 |
| 20260506152821 | 54 | 291 | 2.0 | 2.0 | 0.00 | 0.43 | 0.43 | 69 | 1013.4 |
| 20260506152318 | 54 | 352 | 2.0 | 2.0 | 0.00 | 0.43 | 0.43 | 73 | 1013.2 |
| 20260506151817 | 53 | 337 | 1.0 | 2.0 | 0.00 | 0.43 | 0.43 | 73 | 1013.3 |
| 20260506151313 | 53 | 319 | 3.0 | 5.0 | 0.00 | 0.43 | 0.43 | 70 | 1012.9 |
| 20260506150810 | 54 | 25 | 2.0 | 2.0 | 0.00 | 0.43 | 0.43 | 73 | 1012.9 |
| 20260506150307 | 53 | 342 | 2.0 | 2.0 | 0.00 | 0.43 | 0.43 | 72 | 1012.6 |
| 20260506145804 | 53 | 18 | 0.0 | 1.0 | 0.00 | 0.43 | 0.43 | 74 | 1012.5 |
| 20260506145300 | 52 | 26 | 3.0 | 5.0 | 0.00 | 0.43 | 0.43 | 72 | 1012.4 |
| 20260506144757 | 53 | 342 | 3.0 | 3.0 | 0.00 | 0.43 | 0.43 | 74 | 1012.5 |
| 20260506144254 | 52 | 19 | 2.0 | 2.0 | 0.00 | 0.43 | 0.43 | 76 | 1012.7 |
| 20260506143752 | 51 | 348 | 6.0 | 8.0 | 0.00 | 0.43 | 0.43 | 76 | 1012.4 |
| 20260506143249 | 51 | 339 | 3.0 | 3.0 | 0.00 | 0.43 | 0.43 | 76 | 1012.4 |
| 20260506142747 | 50 | 327 | 2.0 | 2.0 | 0.00 | 0.43 | 0.43 | 79 | 1012.2 |
| 20260506142245 | 51 | 318 | 4.0 | 6.0 | 0.00 | 0.43 | 0.43 | 78 | 1012.7 |
| 20260506141743 | 50 | 17 | 2.0 | 3.0 | 0.00 | 0.43 | 0.43 | 81 | 1012.2 |
| 20260506141241 | 50 | 19 | 1.0 | 1.0 | 0.00 | 0.43 | 0.43 | 83 | 1012.2 |
| 20260506140738 | 49 | 315 | 2.0 | 2.0 | 0.00 | 0.43 | 0.43 | 85 | 1012.2 |
| 20260506140235 | 49 | 9 | 3.0 | 3.0 | 0.00 | 0.43 | 0.43 | 84 | 1012.4 |
| 20260506135732 | 49 | 302 | 3.0 | 3.0 | 0.00 | 0.43 | 0.43 | 86 | 1012.7 |
| 20260506135228 | 48 | 359 | 2.0 | 2.0 | 0.00 | 0.43 | 0.43 | 86 | 1012.6 |
| 20260506134725 | 48 | 309 | 3.0 | 5.0 | 0.00 | 0.43 | 0.43 | 85 | 1012.5 |
| 20260506134222 | 48 | 43 | 0.0 | 0.0 | 0.00 | 0.43 | 0.43 | 87 | 1012.5 |
| 20260506133719 | 48 | 1 | 2.0 | 2.0 | 0.00 | 0.43 | 0.43 | 86 | 1012.0 |
| 20260506133215 | 48 | 10 | 2.0 | 2.0 | 0.00 | 0.43 | 0.43 | 86 | 1012.1 |
| 20260506132713 | 47 | 320 | 1.0 | 2.0 | 0.00 | 0.43 | 0.43 | 89 | 1012.2 |
| 20260506132209 | 47 | 21 | 0.0 | 1.0 | 0.00 | 0.43 | 0.43 | 90 | 1012.1 |
| 20260506131707 | 47 | 354 | 3.0 | 3.0 | 0.00 | 0.43 | 0.43 | 91 | 1011.9 |
| 20260506131203 | 47 | 33 | 1.0 | 1.0 | 0.00 | 0.43 | 0.43 | 92 | 1011.8 |
| 20260506130700 | 46 | 337 | 2.0 | 2.0 | 0.00 | 0.43 | 0.43 | 92 | 1012.2 |
| 20260506130157 | 47 | 321 | 3.0 | 3.0 | 0.00 | 0.43 | 0.43 | 91 | 1012.1 |
| 20260506125655 | 46 | 42 | 1.0 | 1.0 | 0.00 | 0.43 | 0.43 | 91 | 1011.8 |
| 20260506125153 | 46 | 60 | 1.0 | 2.0 | 0.00 | 0.43 | 0.43 | 92 | 1011.9 |
| 20260506124650 | 46 | 344 | 3.0 | 3.0 | 0.00 | 0.43 | 0.43 | 93 | 1011.8 |
| 20260506124148 | 46 | 357 | 1.0 | 2.0 | 0.00 | 0.43 | 0.43 | 92 | 1011.5 |
| 20260506123645 | 46 | 71 | 1.0 | 2.0 | 0.00 | 0.43 | 0.43 | 93 | 1011.5 |
| 20260506123144 | 46 | 336 | 4.0 | 5.0 | 0.00 | 0.43 | 0.43 | 94 | 1011.4 |
| 20260506122641 | 45 | 17 | 1.0 | 2.0 | 0.00 | 0.43 | 0.43 | 94 | 1011.5 |
| 20260506122138 | 45 | 14 | 1.0 | 2.0 | 0.00 | 0.43 | 0.43 | 95 | 1011.6 |
| 20260506121635 | 45 | 4 | 0.0 | 0.0 | 0.00 | 0.43 | 0.43 | 95 | 1011.5 |
| 20260506121132 | 45 | 8 | 0.0 | 0.0 | 0.00 | 0.43 | 0.43 | 95 | 1011.4 |
| 20260506120630 | 45 | 349 | 0.0 | 1.0 | 0.00 | 0.43 | 0.43 | 95 | 1011.0 |
| 20260506120127 | 44 | 0 | 1.0 | 2.0 | 0.00 | 0.43 | 0.43 | 95 | 1011.1 |
| 20260506115626 | 44 | 35 | 1.0 | 2.0 | 0.00 | 0.43 | 0.43 | 96 | 1010.8 |
| 20260506115123 | 44 | 357 | 1.0 | 1.0 | 0.00 | 0.43 | 0.43 | 96 | 1011.1 |
| 20260506114620 | 44 | 35 | 1.0 | 1.0 | 0.00 | 0.43 | 0.43 | 97 | 1010.9 |
| 20260506114118 | 44 | 0 | 1.0 | 2.0 | 0.00 | 0.43 | 0.43 | 98 | 1010.7 |
| 20260506113616 | 44 | 322 | 2.0 | 2.0 | 0.00 | 0.43 | 0.43 | 99 | 1010.4 |
| 20260506113113 | 44 | 13 | 2.0 | 2.0 | 0.00 | 0.43 | 0.43 | 99 | 1010.0 |
| 20260506112609 | 43 | 10 | 1.0 | 1.0 | 0.00 | 0.43 | 0.43 | 99 | 1009.9 |
| 20260506112107 | 43 | 327 | 2.0 | 2.0 | 0.00 | 0.43 | 0.43 | 99 | 1010.2 |
| 20260506111605 | 43 | 353 | 0.0 | 1.0 | 0.00 | 0.43 | 0.43 | 99 | 1010.2 |
| 20260506111102 | 43 | 306 | 1.0 | 1.0 | 0.00 | 0.43 | 0.43 | 99 | 1010.3 |
| 20260506110600 | 43 | 24 | 0.0 | 0.0 | 0.00 | 0.43 | 0.43 | 99 | 1010.3 |
| 20260506110056 | 43 | 4 | 0.0 | 1.0 | 0.00 | 0.43 | 0.43 | 99 | 1010.6 |
| 20260506105553 | 43 | 8 | 1.0 | 2.0 | 0.00 | 0.43 | 0.43 | 99 | 1010.3 |
| 20260506105050 | 43 | 4 | 1.0 | 1.0 | 0.00 | 0.43 | 0.43 | 99 | 1010.0 |
| 20260506104548 | 43 | 330 | 1.0 | 1.0 | 0.00 | 0.43 | 0.43 | 99 | 1009.8 |
| 20260506104046 | 43 | 19 | 2.0 | 2.0 | 0.00 | 0.43 | 0.43 | 99 | 1009.9 |
| 20260506103543 | 43 | 339 | 3.0 | 3.0 | 0.00 | 0.43 | 0.43 | 99 | 1009.8 |
| 20260506103039 | 43 | 13 | 1.0 | 1.0 | 0.00 | 0.43 | 0.43 | 99 | 1009.3 |
| 20260506102538 | 43 | 29 | 1.0 | 2.0 | 0.00 | 0.43 | 0.43 | 99 | 1009.2 |
| 20260506102035 | 43 | 289 | 2.0 | 2.0 | 0.00 | 0.43 | 0.43 | 99 | 1009.0 |
| 20260506101531 | 43 | 3 | 0.0 | 1.0 | 0.00 | 0.43 | 0.43 | 99 | 1009.1 |
| 20260506101028 | 43 | 338 | 4.0 | 6.0 | 0.00 | 0.43 | 0.43 | 99 | 1009.2 |
| 20260506100527 | 44 | 270 | 2.0 | 2.0 | 0.00 | 0.43 | 0.43 | 99 | 1009.6 |
| 20260506100024 | 44 | 9 | 1.0 | 1.0 | 0.00 | 0.43 | 0.43 | 99 | 1009.5 |
| 20260506095523 | 44 | 336 | 1.0 | 1.0 | 0.00 | 0.43 | 0.43 | 99 | 1009.5 |
| 20260506095019 | 44 | 357 | 3.0 | 5.0 | 0.00 | 0.43 | 0.43 | 99 | 1009.4 |
| 20260506094517 | 44 | 353 | 2.0 | 3.0 | 0.00 | 0.43 | 0.43 | 99 | 1009.2 |
| 20260506094014 | 44 | 15 | 1.0 | 1.0 | 0.00 | 0.43 | 0.43 | 99 | 1008.7 |
| 20260506093513 | 44 | 5 | 0.0 | 1.0 | 0.00 | 0.43 | 0.43 | 99 | 1008.6 |
| 20260506093010 | 44 | 12 | 0.0 | 0.0 | 0.00 | 0.43 | 0.43 | 99 | 1008.9 |
| 20260506092508 | 44 | 15 | 0.0 | 0.0 | 0.00 | 0.43 | 0.43 | 99 | 1008.6 |
| 20260506092004 | 44 | 31 | 0.0 | 0.0 | 0.00 | 0.43 | 0.43 | 99 | 1008.1 |
| 20260506091503 | 44 | 312 | 2.0 | 2.0 | 0.00 | 0.43 | 0.43 | 99 | 1008.3 |
| 20260506090959 | 44 | 8 | 0.0 | 0.0 | 0.00 | 0.43 | 0.43 | 99 | 1008.1 |
| 20260506090457 | 44 | 19 | 2.0 | 2.0 | 0.00 | 0.43 | 0.43 | 99 | 1008.9 |
| 20260506085953 | 44 | 16 | 1.0 | 1.0 | 0.00 | 0.43 | 0.43 | 99 | 1008.9 |
| 20260506085450 | 44 | 28 | 0.0 | 0.0 | 0.00 | 0.43 | 0.43 | 99 | 1008.9 |
| 20260506084946 | 44 | 6 | 1.0 | 2.0 | 0.00 | 0.43 | 0.43 | 99 | 1008.6 |
| 20260506084443 | 44 | 21 | 3.0 | 3.0 | 0.00 | 0.43 | 0.43 | 99 | 1008.5 |
| 20260506083939 | 44 | 3 | 0.0 | 1.0 | 0.00 | 0.43 | 0.43 | 99 | 1008.7 |
| 20260506083437 | 44 | 28 | 2.0 | 2.0 | 0.00 | 0.43 | 0.43 | 99 | 1008.2 |
| 20260506082934 | 44 | 347 | 3.0 | 3.0 | 0.00 | 0.43 | 0.43 | 99 | 1008.5 |
| 20260506082431 | 44 | 15 | 2.0 | 2.0 | 0.00 | 0.43 | 0.43 | 99 | 1008.5 |
| 20260506081927 | 44 | 329 | 4.0 | 6.0 | 0.00 | 0.43 | 0.43 | 99 | 1008.6 |
| 20260506081425 | 44 | 349 | 1.0 | 1.0 | 0.00 | 0.43 | 0.43 | 99 | 1008.5 |
| 20260506080922 | 44 | 319 | 2.0 | 2.0 | 0.07 | 0.43 | 0.43 | 99 | 1008.4 |
| 20260506080419 | 44 | 1 | 0.0 | 0.0 | 0.14 | 0.43 | 0.43 | 99 | 1008.4 |
| 20260506073403 | 44 | 0 | 3.0 | 3.0 | 0.12 | 0.39 | 0.39 | 99 | 1008.6 |
| 20260506072900 | 44 | 353 | 6.0 | 8.0 | 0.12 | 0.38 | 0.38 | 99 | 1008.6 |
| 20260506072357 | 44 | 354 | 4.0 | 6.0 | 0.05 | 0.37 | 0.37 | 99 | 1008.5 |
| 20260506071855 | 44 | 41 | 5.0 | 7.0 | 0.07 | 0.36 | 0.36 | 99 | 1008.6 |
| 20260506071353 | 44 | 50 | 3.0 | 3.0 | 0.07 | 0.36 | 0.36 | 99 | 1008.7 |
| 20260506070849 | 44 | 58 | 1.0 | 2.0 | 0.00 | 0.35 | 0.35 | 99 | 1008.4 |
| 20260506070346 | 44 | 21 | 4.0 | 5.0 | 0.00 | 0.35 | 0.35 | 99 | 1008.3 |
| 20260506062323 | 46 | 345 | 1.0 | 2.0 | 0.05 | 0.33 | 0.33 | 99 | 1007.8 |
| 20260506061820 | 46 | 9 | 1.0 | 1.0 | 0.12 | 0.33 | 0.33 | 99 | 1007.9 |
| 20260506061316 | 46 | 27 | 2.0 | 2.0 | 0.12 | 0.32 | 0.32 | 99 | 1008.0 |
| 20260506060815 | 46 | 16 | 4.0 | 5.0 | 0.12 | 0.31 | 0.31 | 99 | 1007.7 |
| 20260506060312 | 46 | 10 | 4.0 | 5.0 | 0.07 | 0.30 | 0.30 | 99 | 1007.6 |
| 20260506051244 | 47 | 304 | 3.0 | 6.0 | 0.17 | 0.22 | 0.22 | 99 | 1008.5 |
| 20260506050742 | 47 | 328 | 3.0 | 3.0 | 0.12 | 0.20 | 0.20 | 99 | 1008.4 |
| 20260506050239 | 47 | 326 | 2.0 | 2.0 | 0.12 | 0.19 | 0.19 | 99 | 1008.3 |
| 20260506044730 | 47 | 32 | 2.0 | 3.0 | 0.19 | 0.16 | 0.16 | 99 | 1008.1 |
| 20260506044227 | 47 | 81 | 0.0 | 1.0 | 0.12 | 0.15 | 0.15 | 99 | 1007.9 |
| 20260506043724 | 48 | 321 | 2.0 | 2.0 | 0.00 | 0.13 | 0.13 | 99 | 1008.0 |
| 20260506043221 | 48 | 322 | 1.0 | 2.0 | 0.05 | 0.13 | 0.13 | 99 | 1007.9 |
| 20260506042720 | 48 | 26 | 2.0 | 2.0 | 0.12 | 0.13 | 0.13 | 99 | 1007.9 |
| 20260506042218 | 49 | 22 | 3.0 | 6.0 | 0.24 | 0.12 | 0.12 | 99 | 1007.9 |
| 20260506041716 | 49 | 25 | 3.0 | 5.0 | 0.35 | 0.11 | 0.11 | 99 | 1007.8 |
| 20260506041213 | 49 | 349 | 4.0 | 5.0 | 0.42 | 0.08 | 0.08 | 99 | 1008.0 |
| 20260506040711 | 49 | 16 | 4.0 | 5.0 | 0.42 | 0.05 | 0.05 | 99 | 1007.9 |
| 20260506040207 | 49 | 328 | 4.0 | 6.0 | 0.19 | 0.01 | 0.01 | 99 | 1007.8 |
| 20260506035704 | 49 | 352 | 2.0 | 2.0 | 0.12 | 0.80 | 0.80 | 99 | 1007.7 |
| 20260506035201 | 49 | 24 | 4.0 | 6.0 | 0.12 | 0.80 | 0.80 | 99 | 1007.5 |
| 20260506034652 | 49 | 345 | 5.0 | 7.0 | 0.00 | 0.78 | 0.78 | 99 | 1007.5 |
| 20260506034149 | 49 | 6 | 3.0 | 3.0 | 0.00 | 0.78 | 0.78 | 99 | 1007.5 |
| 20260506033647 | 50 | 26 | 4.0 | 5.0 | 0.00 | 0.78 | 0.78 | 99 | 1007.6 |
| 20260506033143 | 50 | 352 | 0.0 | 0.0 | 0.00 | 0.78 | 0.78 | 99 | 1007.5 |
| 20260506032641 | 50 | 7 | 0.0 | 0.0 | 0.00 | 0.78 | 0.78 | 99 | 1007.5 |
| 20260506032138 | 50 | 20 | 1.0 | 1.0 | 0.00 | 0.78 | 0.78 | 99 | 1007.3 |
| 20260506031634 | 50 | 28 | 1.0 | 2.0 | 0.00 | 0.78 | 0.78 | 99 | 1007.6 |
| 20260506031131 | 50 | 354 | 0.0 | 0.0 | 0.00 | 0.78 | 0.78 | 99 | 1007.9 |
| 20260506030630 | 49 | 317 | 1.0 | 1.0 | 0.00 | 0.78 | 0.78 | 99 | 1007.6 |
| 20260506030127 | 50 | 357 | 0.0 | 0.0 | 0.05 | 0.78 | 0.78 | 99 | 1007.4 |
| 20260506025624 | 50 | 2 | 0.0 | 1.0 | 0.05 | 0.78 | 0.78 | 99 | 1007.8 |
| 20260506025119 | 49 | 18 | 0.0 | 1.0 | 0.07 | 0.77 | 0.77 | 99 | 1007.8 |
| 20260506024618 | 50 | 47 | 4.0 | 6.0 | 0.12 | 0.77 | 0.77 | 99 | 1007.7 |
| 20260506024113 | 50 | 24 | 3.0 | 3.0 | 0.12 | 0.76 | 0.76 | 99 | 1007.8 |
| 20260506023610 | 50 | 16 | 1.0 | 1.0 | 0.07 | 0.75 | 0.75 | 99 | 1008.1 |
| 20260506023107 | 50 | 358 | 1.0 | 2.0 | 0.07 | 0.74 | 0.74 | 99 | 1008.3 |
| 20260506022604 | 50 | 352 | 2.0 | 2.0 | 0.07 | 0.74 | 0.74 | 99 | 1008.4 |
| 20260506022101 | 50 | 54 | 5.0 | 7.0 | 0.05 | 0.73 | 0.73 | 99 | 1008.4 |
| 20260506021559 | 50 | 18 | 3.0 | 3.0 | 0.12 | 0.73 | 0.73 | 99 | 1008.4 |
| 20260506021050 | 50 | 25 | 2.0 | 2.0 | 0.19 | 0.72 | 0.72 | 99 | 1008.4 |
| 20260506020547 | 51 | 31 | 0.0 | 0.0 | 0.12 | 0.71 | 0.71 | 99 | 1008.4 |
| 20260506020045 | 51 | 81 | 2.0 | 2.0 | 0.12 | 0.70 | 0.70 | 99 | 1008.5 |
| 20260506015542 | 51 | 343 | 2.0 | 3.0 | 0.05 | 0.69 | 0.69 | 99 | 1008.3 |
| 20260506015039 | 51 | 21 | 0.0 | 1.0 | 0.07 | 0.68 | 0.68 | 99 | 1008.2 |
| 20260506014537 | 52 | 327 | 3.0 | 3.0 | 0.07 | 0.68 | 0.68 | 99 | 1008.0 |
| 20260506014032 | 52 | 324 | 2.0 | 3.0 | 0.05 | 0.67 | 0.67 | 99 | 1007.9 |
| 20260506013531 | 53 | 343 | 1.0 | 1.0 | 0.05 | 0.67 | 0.67 | 99 | 1007.8 |
| 20260506013027 | 54 | 322 | 1.0 | 2.0 | 0.07 | 0.66 | 0.66 | 99 | 1007.8 |